Location: Shepherdstown, WV
(39.4326°N, 77.8042°W)
Time: 05:28:10
(UTC-04:00)

Vanguard 3 - Pass Details

Date: 09 August 2021
Orbit: 510 x 3260 km, 33.3° (Epoch: 21 September)

Event Time Altitude Azimuth Distance (km) Brightness Sun altitude
Rises 21:21:32 0° 278° (W) 5,757 12.8 -12.5°
Reaches altitude 10° 21:24:58 10° 274° (W) 5,059 12.2 -13.0°
Maximum altitude 21:40:13 52° 204° (SSW) 3,595 10.3 -15.4°
Enters shadow 21:54:54 20° 140° (SE) 5,352 10.7 -17.7°
Drops below altitude 10° 21:59:01 10° 135° (SE) 6,087 - -18.3°
Sets 22:03:40 0° 131° (SE) 6,950 - -19.0°
